Wetbulb
31.60 33.30 32.77 31.24 31.30 31.25 31.49 33.16 29.36 31.90 33.13 34.59 36.20 37.17 38.11 40.37 41.29 41.75 42.36 43.89 43.51 43.86 43.07 42.08 41.95 42.36 42.35 42.12 41.60 41.79 41.62 41.35 40.54 39.99 38.52 37.58 36.90 36.59 36.50 36.04 35.61 35.58 35.20 35.13
26.76 31.99 31.02 28.62 31.46 31.78 31.19 33.01 33.50 34.08 33.79 38.25 36.54 37.91 38.01 38.90 40.10 39.59 39.67 40.87 41.11 41.52 41.21 40.12 39.19 39.88 40.75 41.32 41.22 41.56 40.96 39.82 39.49 38.36 37.39 36.57 36.04 35.73 35.44 35.19 34.87 34.70 34.27 35.36
23.77 30.34 30.03 25.41 29.13 29.14 30.33 32.10 32.27 28.78 32.50 35.06 34.52 37.29 37.74 37.91 39.01 37.68 37.88 39.53 39.29 38.56 38.53 38.34 37.82 39.22 38.71 39.27 41.03 40.83 39.20 38.90 37.90 37.14 36.36 35.60 35.50 34.98 34.43 33.49 33.89 34.50 34.46 33.54
24.00 28.10 19.70 28.79 31.58 32.72 31.98 34.64 33.45 32.70 34.37 35.60 36.16 37.11 38.05 38.58 36.94 37.25 38.09 38.34 37.46 36.92 36.49 36.85 37.98 38.63 39.27 39.65 39.43 38.12 36.87 36.50 36.71 35.99 35.07 34.90 34.38 33.76 34.10 34.59 33.60 32.79 31.99 31.46
22.95 23.01 28.74 29.15 30.44 31.10 29.31 30.40 34.04 34.06 35.50 36.15 37.03 36.22 35.46 39.12 39.13 38.03 37.75 37.47 36.85 36.72 36.93 36.93 37.17 37.77 37.66 37.02 36.42 35.92 35.15 35.12 35.44 35.21 34.37 34.77 34.83 33.73 32.39 31.75 31.02 30.16 30.50 29.70
25.72 23.02 20.86 29.26 32.02 34.15 33.44 27.33 34.36 36.42 35.33 35.29 35.90 30.26 32.78 38.32 39.54 38.48 37.99 37.19 36.30 36.38 36.56 35.94 35.99 36.40 35.51 34.62 34.03 33.50 34.09 34.40 34.90 35.56 35.40 33.67 32.33 31.55 31.50 30.22 30.49 30.52 30.41 29.98
25.48 24.91 29.44 32.17 33.50 34.67 26.12 28.89 35.67 36.26 36.58 35.87 34.40 35.39 38.12 39.75 38.99 38.98 37.37 36.11 36.14 35.26 33.89 34.14 35.22 35.12 33.28 32.41 31.81 33.64 35.00 35.54 35.14 33.63 32.28 31.76 30.85 29.91 28.85 28.62 29.17 28.36 28.55 28.69
27.00 24.34 23.20 35.04 33.59 30.09 33.41 33.97 35.58 35.59 37.65 37.34 37.12 38.12 38.55 38.90 38.20 37.14 35.34 35.70 35.20 33.26 33.02 33.86 34.81 33.85 31.60 30.79 33.00 34.45 34.76 33.83 32.04 30.81 31.81 31.33 28.84 28.67 28.79 28.00 27.15 26.82 26.65 26.90
31.77 31.69 35.75 35.62 34.90 36.05 37.15 36.80 36.26 37.07 38.43 38.93 37.56 37.84 38.70 37.81 37.16 35.84 35.06 34.72 34.49 32.51 32.06 32.54 33.52 32.51 30.34 30.84 33.27 33.63 32.04 30.31 29.89 30.22 30.03 29.77 28.07 27.54 26.98 27.47 26.68 26.20 25.97 26.10
32.92 33.61 34.46 36.39 37.03 37.49 37.68 37.25 38.17 38.43 39.04 39.76 38.29 38.70 38.34 38.21 37.37 35.77 34.77 33.93 33.75 32.18 30.73 30.40 31.28 31.23 30.69 32.29 33.70 31.81 29.58 28.74 28.93 28.64 28.90 28.41 29.21 28.25 26.79 26.15 25.26 26.33 26.15 25.55
33.60 34.51 34.82 35.87 36.69 37.57 38.35 38.41 38.66 38.64 38.80 39.05 39.84 39.04 38.89 38.38 37.42 36.30 34.94 33.99 33.08 31.62 30.34 29.75 30.57 31.39 32.44 32.44 31.36 29.59 28.48 28.30 28.52 28.86 27.81 27.19 27.75 27.33 27.72 27.66 28.22 26.84 26.86 26.75
32.69 34.77 35.30 34.82 36.49 38.45 38.23 37.94 38.24 38.07 36.75 37.47 38.35 38.96 38.85 37.59 37.11 35.51 33.32 32.88 32.33 31.06 29.72 29.92 31.54 31.15 30.67 31.08 30.29 28.93 27.93 27.82 27.54 27.30 27.16 26.95 26.53 26.70 33.64 34.49 34.17 34.11 33.94 31.93
33.57 35.80 36.87 37.55 37.96 37.78 37.16 37.60 37.73 37.66 37.69 36.04 36.71 38.83 38.61 37.11 36.24 37.92 33.49 32.52 31.75 30.28 30.21 31.11 30.60 29.65 29.85 30.29 29.58 28.74 26.65 26.79 27.41 28.34 26.68 26.15 26.30 26.08 25.27 28.16 33.50 33.23 32.68 32.55
34.96 35.56 35.46 36.25 34.79 36.65 37.00 37.50 37.89 36.50 36.75 37.48 37.52 38.04 37.48 36.29 36.69 34.05 32.30 32.54 31.84 30.44 30.68 30.77 29.66 28.67 29.43 29.81 28.41 27.93 27.15 31.68 26.95 26.42 26.20 26.23 26.46 26.44 25.79 24.65 23.48 24.41 29.71 30.58
34.08 34.43 34.31 34.64 35.53 36.19 36.41 36.70 35.50 35.52 35.44 35.60 36.55 36.00 35.92 34.76 33.88 32.97 32.83 32.06 31.11 30.31 30.78 30.43 28.92 27.96 29.45 29.36 28.09 27.41 26.89 26.39 26.58 26.63 27.01 27.92 27.13 26.12 25.69 25.36 24.54 24.71 26.42 27.09
32.56 33.33 34.47 34.07 34.20 34.31 34.32 34.42 34.24 34.24 34.72 34.73 34.68 34.76 35.06 34.73 32.55 30.66 29.73 29.79 29.70 29.14 29.66 29.21 28.00 28.24 29.07 28.49 27.26 26.93 26.84 30.75 29.61 27.26 27.06 26.57 26.27 25.62 25.40 25.21 25.24 23.96 24.93 24.96
29.10 30.16 31.41 31.15 32.67 32.66 33.01 33.96 34.41 34.56 34.17 34.23 33.49 33.23 32.01 30.17 28.91 28.15 28.41 29.50 29.85 29.48 28.76 27.67 27.10 28.22 28.35 28.23 27.03 26.43 26.19 27.02 30.59 27.44 26.18 26.10 25.63 25.51 25.44 24.71 25.34 23.78 25.41 26.49
31.82 31.88 31.85 32.05 31.96 32.35 33.52 33.85 34.10 33.68 31.96 32.22 31.74 31.02 29.35 28.27 27.54 27.27 27.71 27.58 27.04 26.85 27.56 27.97 27.88 27.98 28.19 28.33 27.86 26.91 26.39 26.48 26.82 26.53 26.62 26.12 25.27 25.04 26.14 27.37 26.43 25.53 25.81 26.23
31.28 31.11 31.09 29.93 30.19 31.24 30.98 29.42 30.43 29.94 28.88 29.40 28.61 27.47 28.72 28.67 27.82 27.20 26.35 25.20 24.75 24.49 26.09 27.33 32.22 29.37 27.41 29.15 29.43 27.05 26.43 26.19 26.87 25.91 26.11 27.63 24.87 26.24 25.78 27.16 26.34 26.53 26.29 25.66
28.51 29.53 29.27 28.55 28.91 29.11 28.43 29.29 29.95 28.96 29.41 29.63 28.68 27.90 27.45 27.48 26.78 25.98 25.84 25.28 25.93 26.75 27.07 27.14 27.88 26.98 27.88 28.99 31.74 24.58 24.31 24.98 25.01 25.77 25.11 23.41 22.70 25.09 26.17 26.36 25.88 26.05 25.66 24.89
24.35 25.25 26.69 27.37 26.73 27.15 27.65 28.48 28.44 27.21 27.39 28.33 27.99 27.14 26.52 26.65 26.90 26.03 25.05 24.51 26.09 27.30 26.72 30.00 26.63 26.87 27.68 28.72 28.87 25.32 25.17 23.75 26.25 22.34 22.19 21.38 22.85 25.21 25.19 24.96 25.06 25.23 24.41 24.14
25.40 23.24 23.02 24.58 25.82 24.81 25.74 26.37 26.62 26.39 26.03 26.12 26.34 26.15 25.24 24.30 24.60 24.31 25.11 24.46 24.96 30.90 26.24 24.81 25.41 29.18 27.61 32.12 26.36 25.58 24.14 28.92 28.74 25.29 20.04 20.76 24.98 25.28 24.67 24.51 24.26 24.53 24.06 23.74
25.81 26.31 25.32 24.39 24.34 24.35 24.74 24.76 24.94 25.23 24.18 23.62 23.49 24.16 23.75 23.59 23.23 21.66 22.49 26.04 25.13 28.37 25.94 26.27 29.55 32.21 32.54 26.85 25.85 24.53 28.33 28.58 28.14 27.68 27.27 25.22 26.02 25.20 24.58 24.18 24.45 24.46 23.72 23.14
25.88 25.05 24.23 23.49 21.11 22.40 22.62 23.71 23.93 24.00 21.75 22.83 21.73 21.81 22.26 21.99 23.13 22.55 24.69 28.50 30.00 28.34 24.75 25.51 27.82 31.76 32.18 24.58 26.44 29.09 28.90 28.39 28.15 28.10 27.65 28.52 26.13 24.99 24.64 24.36 23.61 23.76 23.19 22.62
24.77 23.51 23.35 23.82 23.33 23.00 22.34 22.24 20.78 21.18 22.94 23.83 24.22 24.11 23.38 23.44 22.35 22.43 21.74 23.70 28.35 26.27 23.73 29.99 31.57 31.83 25.61 24.44 29.28 28.51 28.38 28.37 28.36 28.26 27.57 26.20 25.07 24.53 24.27 23.84 23.38 23.06 22.59 22.01
24.07 23.92 24.15 24.06 23.53 23.59 23.71 23.46 22.35 23.67 23.82 22.67 24.12 24.70 24.91 23.74 22.65 22.46 21.75 25.11 23.04 25.41 21.65 21.91 22.61 25.30 24.74 25.12 27.55 27.60 27.58 27.21 26.77 26.74 26.69 25.48 24.46 23.72 23.19 22.78 22.38 22.15 18.72 18.94
25.25 27.82 25.07 23.77 24.59 24.09 24.43 24.43 21.82 22.09 23.97 23.67 22.81 24.62 24.96 24.17 22.86 23.53 26.09 22.76 21.82 21.04 21.01 21.30 20.87 22.06 19.13 17.80 18.53 18.93 18.97 25.34 26.09 25.29 25.08 24.48 23.72 23.29 23.04 22.72 22.27 22.07 20.58 12.99
MSLP
1013.23 1012.23 1012.01 1011.27 1010.98 1011.20 1011.39 1011.28 1011.20 1010.11 1009.81 1009.49 1009.39 1009.90 1010.24 1010.52 1010.87 1011.19 1011.47 1012.02 1012.24 1012.69 1012.69 1014.35 1014.55 1014.82 1015.07 1015.44 1015.88 1016.25 1016.87 1017.28 1017.78 1018.10 1018.53 1018.99 1019.51 1019.84 1020.30 1020.60 1020.92 1021.19 1021.40 1021.58
1012.69 1011.48 1011.15 1010.67 1010.25 1010.21 1010.27 1010.20 1010.31 1010.23 1009.64 1009.20 1009.34 1009.89 1010.51 1010.95 1011.25 1011.57 1011.84 1012.38 1012.55 1013.02 1013.30 1014.35 1015.31 1015.43 1015.61 1015.85 1016.42 1016.79 1017.20 1017.69 1018.01 1018.54 1018.96 1019.45 1019.84 1020.28 1020.72 1020.87 1021.28 1021.50 1021.67 1021.68
1013.02 1011.40 1010.79 1010.28 1009.71 1009.60 1009.39 1009.32 1009.41 1009.45 1009.33 1009.16 1009.94 1010.42 1010.77 1011.21 1011.67 1012.08 1012.57 1012.93 1013.27 1013.98 1014.45 1015.31 1015.97 1015.85 1016.05 1016.54 1016.83 1017.13 1017.65 1018.12 1018.56 1019.01 1019.47 1019.91 1020.22 1020.62 1020.90 1021.33 1021.64 1021.80 1021.80 1021.86
1013.69 1011.80 1010.67 1009.68 1009.30 1009.14 1008.98 1008.78 1008.76 1009.07 1009.43 1009.73 1010.19 1010.62 1010.91 1011.37 1012.01 1012.66 1013.22 1013.67 1014.18 1014.84 1015.35 1015.91 1016.00 1016.37 1016.65 1016.84 1017.17 1017.62 1018.12 1018.60 1019.02 1019.43 1020.00 1020.27 1020.58 1021.02 1021.40 1021.76 1021.91 1021.92 1022.10 1022.17
1013.94 1012.60 1010.38 1009.41 1009.08 1009.01 1008.93 1008.84 1008.75 1009.03 1009.67 1010.21 1010.81 1011.20 1011.67 1011.73 1012.29 1013.03 1013.66 1014.21 1014.78 1015.40 1015.99 1016.36 1016.62 1016.75 1016.89 1017.35 1017.81 1018.23 1018.73 1019.13 1019.50 1019.86 1020.39 1020.70 1021.26 1021.69 1021.90 1022.01 1022.22 1022.39 1022.36 1022.42
1013.68 1012.55 1010.47 1009.27 1008.80 1008.77 1008.85 1009.12 1008.98 1009.12 1009.86 1010.55 1011.14 1011.83 1012.27 1012.40 1012.78 1013.56 1014.10 1014.68 1015.25 1015.75 1016.12 1016.46 1016.75 1017.00 1017.46 1018.09 1018.49 1018.95 1019.25 1019.60 1019.85 1020.18 1020.68 1021.36 1021.72 1021.89 1022.07 1022.32 1022.43 1022.41 1022.50 1022.52
1013.46 1012.27 1009.93 1009.01 1008.81 1008.82 1009.14 1009.94 1009.14 1009.25 1009.85 1010.49 1010.98 1011.23 1011.27 1012.17 1013.09 1013.70 1014.37 1014.94 1015.42 1015.89 1016.47 1016.78 1017.09 1017.50 1018.16 1018.65 1019.17 1019.42 1019.66 1019.98 1020.38 1020.83 1021.32 1021.58 1021.85 1022.18 1022.35 1022.33 1022.51 1022.74 1022.85 1022.69
1011.87 1011.27 1010.19 1009.21 1009.15 1009.41 1009.67 1009.41 1009.20 1009.28 1009.75 1010.49 1010.90 1011.34 1011.90 1012.67 1013.39 1014.13 1014.80 1015.35 1015.85 1016.43 1017.01 1017.22 1017.53 1017.91 1018.69 1019.25 1019.53 1019.74 1020.12 1020.61 1021.07 1021.36 1021.61 1021.99 1022.17 1022.23 1022.38 1022.68 1023.05 1023.17 1023.10 1022.91
1010.37 1009.91 1009.54 1009.46 1009.54 1009.69 1009.69 1009.75 1009.67 1009.53 1009.80 1010.44 1011.11 1011.76 1012.30 1013.11 1013.86 1014.54 1015.08 1015.63 1016.22 1016.89 1017.43 1017.69 1017.97 1018.38 1019.09 1019.53 1019.75 1020.14 1020.60 1021.11 1021.43 1021.79 1022.04 1022.15 1022.39 1022.76 1023.02 1023.09 1023.23 1023.30 1023.23 1023.10
1010.02 1009.87 1009.69 1009.72 1009.87 1009.95 1010.05 1010.17 1010.17 1010.10 1010.07 1010.35 1011.11 1011.74 1012.45 1013.23 1014.04 1014.77 1015.32 1015.90 1016.49 1017.17 1017.71 1018.10 1018.29 1018.76 1019.25 1019.57 1019.84 1020.36 1020.95 1021.47 1021.74 1022.02 1022.17 1022.40 1022.62 1022.81 1023.09 1023.22 1023.24 1023.27 1023.27 1023.27
1009.94 1009.89 1010.10 1010.32 1010.48 1010.58 1010.52 1010.56 1010.62 1010.68 1010.69 1010.74 1011.08 1011.74 1012.38 1013.21 1014.05 1014.73 1015.42 1016.10 1016.65 1017.26 1017.84 1018.37 1018.64 1019.12 1019.42 1019.69 1020.03 1020.71 1021.24 1021.61 1021.92 1022.19 1022.48 1022.73 1022.79 1022.81 1022.78 1022.71 1022.80 1022.95 1023.07 1023.03
1009.73 1010.00 1010.08 1010.79 1011.04 1011.11 1011.11 1011.23 1011.19 1011.14 1011.21 1011.18 1011.26 1011.82 1012.52 1013.39 1014.04 1014.80 1015.54 1016.20 1016.81 1017.42 1018.00 1018.50 1018.92 1019.41 1019.72 1019.92 1020.28 1020.89 1021.41 1021.85 1022.21 1022.52 1022.79 1022.91 1022.90 1022.79 1022.39 1022.32 1022.41 1022.39 1022.37 1022.38
1009.93 1010.30 1010.49 1010.83 1011.29 1011.53 1011.61 1011.76 1011.84 1011.79 1011.72 1011.75 1011.83 1012.06 1012.63 1013.52 1014.19 1014.92 1015.68 1016.31 1016.88 1017.43 1017.97 1018.52 1019.11 1019.66 1020.02 1020.30 1020.60 1021.11 1021.67 1022.10 1022.42 1022.67 1022.79 1022.89 1022.95 1022.97 1022.99 1022.67 1022.47 1022.40 1022.44 1022.38
1010.59 1010.58 1011.21 1011.29 1011.67 1011.77 1011.84 1011.90 1012.00 1012.13 1012.20 1012.22 1012.32 1012.57 1013.06 1013.78 1014.53 1015.20 1015.85 1016.37 1016.87 1017.47 1018.12 1018.71 1019.33 1019.90 1020.23 1020.51 1020.95 1021.41 1021.88 1022.08 1022.48 1022.67 1022.82 1022.91 1023.02 1023.04 1023.04 1023.02 1022.96 1022.72 1022.52 1022.48
1011.60 1011.13 1011.45 1011.82 1011.90 1012.03 1012.04 1012.16 1012.27 1012.45 1012.70 1012.91 1012.99 1013.31 1013.73 1014.43 1015.07 1015.63 1016.07 1016.52 1017.09 1017.73 1018.35 1018.90 1019.48 1020.08 1020.33 1020.70 1021.13 1021.62 1022.01 1022.29 1022.41 1022.56 1022.64 1022.73 1022.87 1023.02 1023.07 1023.06 1022.98 1022.81 1022.57 1022.52
1012.26 1011.83 1011.79 1012.15 1012.44 1012.52 1012.46 1012.52 1012.59 1012.88 1013.13 1013.43 1013.72 1014.03 1014.39 1014.87 1015.48 1016.07 1016.49 1016.87 1017.45 1018.14 1018.60 1019.07 1019.63 1020.09 1020.43 1020.86 1021.29 1021.63 1021.90 1022.09 1022.35 1022.60 1022.67 1022.75 1022.86 1022.94 1022.94 1022.85 1022.75 1022.66 1022.53 1022.37
1012.67 1012.64 1012.51 1012.64 1012.89 1013.06 1013.13 1013.10 1013.09 1013.21 1013.52 1013.85 1014.31 1014.68 1015.07 1015.57 1016.15 1016.73 1017.13 1017.39 1017.76 1018.28 1018.74 1019.22 1019.80 1020.13 1020.53 1020.84 1021.17 1021.59 1021.90 1022.13 1022.28 1022.53 1022.65 1022.72 1022.78 1022.81 1022.74 1022.70 1022.61 1022.54 1022.46 1022.24
1013.02 1013.04 1013.06 1012.96 1013.28 1013.50 1013.65 1013.64 1013.70 1013.79 1014.13 1014.41 1014.80 1015.23 1015.70 1016.17 1016.68 1017.18 1017.57 1017.83 1018.26 1018.78 1019.13 1019.37 1019.72 1020.10 1020.47 1020.83 1021.15 1021.48 1021.82 1022.09 1022.28 1022.44 1022.46 1022.51 1022.47 1022.55 1022.57 1022.48 1022.41 1022.30 1022.17 1022.09
1013.52 1013.58 1013.49 1013.55 1013.74 1013.94 1014.28 1014.47 1014.49 1014.62 1014.81 1015.10 1015.43 1015.86 1016.23 1016.62 1017.08 1017.56 1017.91 1018.39 1018.84 1019.12 1019.37 1019.46 1019.74 1020.14 1020.54 1020.84 1021.15 1021.47 1021.78 1021.99 1022.12 1022.22 1022.29 1022.23 1022.21 1022.22 1022.24 1022.26 1022.22 1022.14 1021.98 1021.86
1014.31 1013.95 1013.88 1014.17 1014.35 1014.52 1014.85 1014.90 1014.96 1015.13 1015.33 1015.59 1015.94 1016.35 1016.78 1017.20 1017.53 1017.99 1018.34 1018.78 1018.86 1018.93 1019.10 1019.48 1019.86 1020.24 1020.49 1020.75 1021.06 1021.34 1021.53 1021.76 1022.05 1022.07 1022.15 1022.17 1022.12 1022.15 1022.11 1021.96 1021.97 1021.95 1021.87 1021.73
1014.83 1014.69 1014.73 1014.95 1015.27 1015.43 1015.45 1015.42 1015.51 1015.76 1015.95 1016.04 1016.37 1016.83 1017.29 1017.67 1017.97 1018.31 1018.75 1019.00 1019.08 1019.06 1019.29 1019.58 1019.92 1020.19 1020.40 1020.67 1020.94 1021.14 1021.30 1021.50 1021.66 1021.95 1022.16 1022.15 1022.04 1021.97 1021.91 1021.93 1021.75 1021.75 1021.71 1021.60
1015.28 1015.46 1015.62 1015.69 1016.06 1016.32 1016.25 1016.13 1016.16 1016.35 1016.58 1016.75 1016.93 1017.27 1017.77 1018.20 1018.48 1018.75 1018.87 1019.05 1019.27 1019.23 1019.47 1019.72 1019.88 1020.03 1020.23 1020.42 1020.68 1020.91 1021.00 1021.06 1021.20 1021.52 1021.82 1021.84 1021.71 1021.62 1021.60 1021.66 1021.55 1021.46 1021.43 1021.36
1015.93 1016.12 1016.32 1016.65 1016.91 1016.97 1016.86 1016.85 1016.89 1016.99 1017.30 1017.54 1017.80 1017.93 1018.29 1018.39 1018.64 1019.03 1019.13 1019.26 1019.23 1019.34 1019.49 1019.63 1019.71 1019.84 1020.02 1020.25 1020.49 1020.60 1020.58 1020.66 1020.80 1020.88 1020.97 1021.19 1021.12 1021.24 1021.26 1021.24 1021.18 1021.10 1021.10 1021.08
1016.53 1016.85 1017.42 1017.57 1017.36 1017.35 1017.60 1017.80 1017.73 1017.81 1017.86 1017.95 1018.09 1018.26 1018.41 1018.91 1018.96 1018.94 1019.03 1019.17 1019.30 1019.42 1019.52 1019.56 1019.61 1019.72 1019.84 1020.05 1020.16 1020.14 1020.18 1020.25 1020.36 1020.44 1020.49 1020.53 1020.65 1020.84 1020.87 1020.84 1020.79 1020.76 1020.80 1020.84
1017.33 1017.74 1017.97 1018.10 1018.13 1018.27 1018.35 1018.36 1018.38 1018.38 1018.39 1018.48 1018.59 1018.74 1018.76 1018.78 1019.06 1019.35 1019.26 1019.40 1019.47 1019.52 1019.54 1019.50 1019.55 1019.63 1019.73 1019.82 1019.78 1019.77 1019.77 1019.77 1019.85 1019.95 1019.93 1020.12 1020.25 1020.38 1020.42 1020.42 1020.39 1020.40 1020.43 1020.55
1018.08 1018.31 1018.61 1018.81 1018.83 1018.79 1018.78 1018.78 1019.03 1019.01 1019.01 1019.13 1019.09 1019.11 1019.08 1019.11 1019.21 1019.29 1019.33 1019.40 1019.51 1019.57 1019.60 1019.58 1019.62 1019.73 1019.79 1019.80 1019.78 1019.75 1019.66 1019.59 1019.61 1019.64 1019.62 1019.76 1019.91 1020.05 1020.17 1020.11 1020.04 1020.02 1020.15 1020.32
1018.73 1018.70 1019.07 1019.33 1019.39 1019.32 1019.25 1019.45 1019.72 1019.85 1019.73 1019.71 1019.71 1019.58 1019.47 1019.48 1019.45 1019.42 1019.39 1019.45 1019.47 1019.52 1019.60 1019.66 1019.71 1019.78 1019.82 1019.84 1019.78 1019.73 1019.61 1019.45 1019.38 1019.44 1019.58 1019.67 1019.80 1019.92 1019.77 1019.56 1019.46 1019.41 1019.55 1019.99
Wind_Speed
12 16 13 16 15 9 10 10 5 4 4 3 6 7 5 7 7 7 8 9 8 8 11 7 6 6 7 7 7 6 7 7 7 7 7 7 7 7 6 6 5 4 3 0
10 11 8 8 7 8 7 8 10 11 15 6 7 8 5 7 7 7 8 7 10 9 11 8 5 6 6 7 6 6 7 7 7 7 7 7 7 7 6 5 4 2 1 2
7 7 9 4 3 3 4 3 4 5 6 7 7 6 7 7 7 8 8 7 9 9 8 7 4 6 7 6 6 7 8 7 7 7 7 7 7 6 6 5 3 2 5 6
7 9 4 2 1 2 2 5 3 2 5 6 7 5 7 7 8 9 8 8 8 7 7 6 6 6 6 6 7 8 8 7 7 7 7 6 7 6 5 3 4 4 4 5
2 3 6 1 1 2 3 2 2 5 7 8 7 7 7 8 9 8 8 7 7 7 7 7 7 6 7 8 8 8 7 7 7 7 7 7 7 6 4 5 4 3 3 5
4 4 4 1 1 1 2 2 2 5 7 9 8 4 4 6 9 9 9 7 7 7 7 7 7 8 8 8 8 7 7 7 7 7 7 7 6 5 3 2 2 3 4 4
5 5 5 1 1 2 2 3 3 2 8 7 4 3 8 10 8 8 7 8 7 7 7 7 7 8 8 8 8 6 7 7 7 7 7 6 5 2 2 3 4 4 5 5
4 3 6 3 2 2 2 2 1 0 6 6 6 8 8 8 9 9 9 7 8 7 7 6 7 8 8 8 6 7 7 7 7 6 4 3 4 3 5 4 4 4 5 5
4 3 1 2 3 2 2 3 4 3 5 7 7 6 8 7 8 8 8 7 7 7 7 5 6 7 8 6 7 7 7 7 6 6 4 5 5 5 3 4 3 3 3 4
3 1 1 3 3 2 3 2 3 3 1 4 7 7 7 7 7 7 6 6 6 8 7 6 6 8 7 7 7 7 7 6 4 5 4 4 3 2 2 3 3 3 3 4
3 4 5 5 5 4 3 2 3 3 3 2 7 7 7 6 7 7 7 6 7 7 7 7 8 7 6 6 7 7 6 5 4 3 4 3 1 2 1 2 2 1 2 2
4 3 4 5 4 4 5 6 6 3 2 2 2 7 6 7 6 7 7 6 6 7 8 7 8 7 6 5 7 6 6 4 3 2 1 1 1 3 6 4 4 7 9 7
6 3 4 6 6 5 4 5 5 5 5 2 2 4 7 6 6 9 7 7 7 8 8 8 8 7 6 6 6 6 6 4 3 2 1 1 1 1 3 4 7 8 11 13
4 3 4 4 3 4 3 4 3 3 3 3 4 4 5 7 7 7 7 7 8 8 8 8 8 7 6 6 7 6 6 5 3 2 1 0 1 2 1 2 2 3 5 12
4 5 4 2 1 4 2 1 0 3 3 4 4 6 7 7 7 7 7 7 8 8 7 7 7 7 6 6 6 6 4 3 2 0 1 2 1 2 2 3 3 3 3 5
0 2 5 6 5 4 3 3 3 4 4 4 5 5 6 7 7 7 7 7 8 7 7 7 7 6 6 6 6 4 4 5 2 1 1 1 1 1 2 2 2 3 3 5
3 4 4 4 4 3 2 2 2 5 5 6 6 6 7 8 7 7 6 6 7 7 7 7 7 6 6 6 6 4 3 3 4 1 1 0 1 3 3 2 2 2 3 6
3 4 3 4 2 1 3 3 4 5 4 6 6 7 7 7 7 7 6 7 7 7 6 6 7 6 6 6 5 3 3 3 2 2 1 2 3 2 2 4 4 4 4 4
4 5 5 6 4 4 4 4 4 5 4 6 6 6 6 6 6 6 6 7 6 6 5 6 9 7 6 6 5 3 3 3 2 1 1 4 3 3 2 3 4 4 4 4
5 5 7 7 6 5 5 4 5 6 5 6 6 6 6 6 6 7 5 5 4 3 6 6 6 5 5 6 7 2 3 3 3 2 2 1 2 2 3 6 6 4 3 4
5 6 7 7 6 6 6 4 5 6 5 5 6 6 6 6 6 6 5 3 1 4 5 7 5 3 3 5 5 3 3 3 2 2 2 2 3 3 4 4 4 4 4 4
5 5 6 6 6 6 5 5 6 6 6 6 7 7 7 6 5 3 2 4 2 5 4 3 3 5 5 8 3 3 3 3 6 3 3 3 3 3 4 4 4 4 3 4
6 6 6 6 5 4 5 6 6 6 6 6 5 5 4 3 3 4 2 1 2 2 2 2 4 7 8 3 3 3 3 4 6 6 5 4 6 4 3 4 5 3 3 4
7 8 5 3 4 5 6 5 5 5 4 4 4 3 3 3 3 2 2 2 1 1 2 3 3 6 7 3 4 4 4 4 4 4 5 10 3 2 3 4 4 3 3 5
5 3 4 5 6 4 4 2 3 4 5 4 4 3 2 1 3 2 2 1 1 1 2 4 5 7 3 3 4 3 3 3 3 4 5 4 4 4 4 3 4 4 4 4
5 4 4 5 4 4 4 4 3 3 4 3 3 3 3 2 1 1 0 1 1 3 1 2 0 2 3 3 2 4 5 4 5 5 5 3 2 3 4 4 4 5 3 4
4 8 4 5 5 5 4 5 4 3 4 3 2 3 3 2 2 2 2 1 1 1 1 1 1 2 2 2 3 3 3 4 6 3 3 4 4 4 4 4 4 5 3 3
Wind_Direction
263 276 282 273 270 248 205 233 248 307 207 35 142 141 145 146 139 135 128 128 113 114 93 90 85 97 108 104 109 115 121 119 121 108 102 103 101 96 92 89 90 84 74 219
287 269 228 266 275 253 243 231 244 264 281 271 110 98 111 119 120 117 106 103 107 90 100 91 110 99 105 111 125 126 114 107 102 101 102 105 103 105 108 96 97 102 128 53
276 317 308 302 272 275 199 236 242 257 271 123 115 147 149 137 121 109 103 103 95 92 92 93 107 122 104 119 126 116 107 108 106 106 102 104 109 106 94 95 92 62 42 41
277 316 349 255 58 281 293 292 102 337 99 123 130 113 112 118 114 107 104 98 93 103 102 97 86 94 114 108 98 98 97 99 100 101 105 103 95 93 80 80 72 51 33 17
272 287 250 184 69 352 26 126 134 121 117 98 104 79 37 98 110 119 114 104 108 114 120 113 112 104 93 86 91 92 96 99 102 107 107 97 87 86 70 55 38 25 8 354
330 281 296 254 56 37 301 65 93 131 128 133 151 116 200 115 108 102 106 109 114 115 110 103 105 101 95 94 92 92 95 99 99 95 91 89 95 80 58 64 50 7 336 308
232 271 290 44 47 318 3 253 338 144 142 152 155 216 160 137 117 115 116 112 111 98 101 101 100 101 96 95 95 104 96 89 81 80 91 91 88 93 75 31 18 349 326 327
201 245 301 360 314 31 244 32 12 268 144 135 110 95 109 110 117 117 117 123 106 100 97 92 102 100 99 102 118 102 98 96 96 90 74 81 85 49 30 27 7 338 348 334
189 217 108 30 102 113 25 43 0 80 123 125 121 133 136 131 128 130 137 128 118 120 117 110 114 115 116 131 117 117 104 101 101 103 107 80 54 41 21 6 1 340 345 344
13 27 93 100 110 72 34 70 32 32 131 128 143 153 145 140 140 140 139 138 127 130 129 127 113 110 124 131 131 114 111 115 113 93 60 83 69 61 49 5 12 9 352 336
237 139 95 67 70 37 55 68 79 38 16 201 154 162 151 145 143 140 138 135 136 140 134 129 113 115 125 124 115 115 118 116 98 95 87 49 70 187 194 243 153 296 284 293
196 129 113 112 81 27 51 49 35 39 57 357 143 157 141 143 142 138 141 143 142 136 129 135 122 121 115 110 125 126 114 105 95 89 107 126 53 349 342 309 310 306 324 334
146 104 100 109 102 56 66 46 29 22 25 131 19 126 134 137 138 142 137 146 144 142 139 132 126 125 127 114 104 106 117 121 133 131 86 43 352 351 328 331 336 346 350 335
79 128 113 60 100 357 31 24 29 68 49 31 124 96 109 119 123 131 146 152 138 133 136 135 133 137 135 120 116 114 110 122 124 139 145 341 350 317 319 309 315 322 343 332
93 65 94 116 71 72 65 56 114 91 93 77 81 112 118 127 134 138 135 130 129 130 134 136 133 140 139 134 129 134 137 146 135 186 238 208 273 315 345 335 322 305 328 337
247 138 123 109 98 71 67 75 97 112 104 112 106 107 121 121 116 113 117 128 134 149 144 139 139 150 138 134 138 136 142 147 154 256 297 342 331 347 305 294 288 302 309 328
122 114 98 111 80 51 70 76 90 125 117 116 118 113 103 105 105 112 121 127 131 138 142 138 142 139 142 150 151 160 152 168 188 242 272 42 334 305 296 295 297 281 292 316
91 105 120 113 117 70 77 93 85 93 92 114 115 115 117 127 138 137 132 113 101 99 120 138 143 146 152 157 157 150 152 173 177 204 251 293 276 249 272 280 286 289 296 311
119 118 97 84 67 76 76 80 82 98 101 113 113 123 130 124 130 132 123 117 124 133 188 150 157 150 161 176 158 149 170 190 194 219 265 309 320 302 284 297 293 294 289 304
95 87 84 84 67 78 95 77 103 99 109 111 112 109 109 113 119 122 122 135 155 157 139 154 151 162 167 181 179 168 171 181 197 219 242 258 286 306 297 303 301 294 292 304
78 70 75 83 78 64 63 67 99 92 85 103 115 121 122 120 120 126 117 117 135 133 130 145 158 176 172 172 187 191 202 202 214 209 213 244 277 272 293 290 291 286 296 305
76 78 70 68 88 75 52 68 85 91 88 85 90 102 108 106 106 90 94 137 167 129 139 159 183 198 187 198 174 202 217 247 260 239 223 234 254 268 276 269 270 271 278 284
60 65 64 58 70 78 69 62 64 81 85 83 92 102 109 139 151 115 114 30 117 164 156 183 207 205 211 187 189 217 224 241 261 268 264 247 281 276 255 261 265 259 275 289
52 47 38 17 29 51 59 35 51 62 79 83 92 106 111 92 29 53 103 117 131 165 205 222 219 223 222 189 217 226 229 215 227 244 259 268 259 254 242 253 262 260 267 289
59 67 46 41 56 53 60 41 64 53 62 71 86 94 90 67 127 212 110 103 338 350 277 269 258 254 240 222 256 252 234 224 242 245 257 232 243 255 243 244 252 260 254 251
56 64 70 62 61 51 46 45 63 45 51 43 56 65 65 68 47 58 108 231 218 263 265 280 313 306 285 293 276 273 272 274 268 278 274 215 210 244 261 268 268 270 247 260
54 71 65 53 36 27 32 43 52 27 31 31 3 45 32 14 355 358 331 281 226 212 195 256 261 280 257 262 272 262 253 265 274 276 252 245 243 246 253 247 254 261 242 221